Location: Cuiry
(49.3858°N, 3.7708°E)
Time: 00:59:30
(UTC+00:00)

ARIANE 5 R/B - Pass Details

Date: 12 January 2026
Orbit: 746 x 793 km, 98.8° (Epoch: 18 February)

Event Time Altitude Azimuth Distance (km) Brightness Sun altitude
Rises 18:07:37 0° 189° (S) 3,276 6.0 -18.5°
Reaches altitude 10° 18:10:07 10° 198° (SSW) 2,354 5.4 -18.9°
Maximum altitude 18:14:52 35° 264° (W) 1,264 4.2 -19.6°
Drops below altitude 10° 18:19:39 10° 329° (NNW) 2,368 5.3 -20.4°
Sets 18:22:11 0° 339° (NNW) 3,299 5.9 -20.8°
